TimeCST,TemperatureF,Dew PointF,Humidity,Sea Level PressureIn,VisibilityMPH,Wind Direction,Wind SpeedMPH,Gust SpeedMPH,PrecipitationIn,Events,Conditions,WindDirDegrees,DateUTC
12:15 AM,31.6,30.9,97,30.21,10.0,Calm,Calm,-,N/A,,Clear,0,2014-01-04 06:15:00
12:35 AM,32.9,31.8,96,30.21,7.0,Calm,Calm,-,N/A,,Clear,0,2014-01-04 06:35:00
12:55 AM,32.0,31.5,98,30.20,7.0,Calm,Calm,-,N/A,,Clear,0,2014-01-04 06:55:00
1:15 AM,31.3,30.7,98,30.19,7.0,Calm,Calm,-,N/A,,Clear,0,2014-01-04 07:15:00
1:35 AM,31.3,30.9,99,30.18,7.0,Calm,Calm,-,N/A,,Clear,0,2014-01-04 07:35:00
1:55 AM,32.0,31.6,99,30.17,7.0,Calm,Calm,-,N/A,,Clear,0,2014-01-04 07:55:00
2:15 AM,32.7,32.2,98,30.17,7.0,Calm,Calm,-,N/A,,Clear,0,2014-01-04 08:15:00
2:35 AM,32.9,32.0,96,30.16,7.0,Calm,Calm,-,N/A,,Clear,0,2014-01-04 08:35:00
2:55 AM,32.4,32.0,99,30.15,7.0,Calm,Calm,-,N/A,,Clear,0,2014-01-04 08:55:00
3:15 AM,32.5,32.0,98,30.15,7.0,Calm,Calm,-,N/A,,Clear,0,2014-01-04 09:15:00
3:35 AM,32.2,32.0,99,30.15,7.0,Calm,Calm,-,N/A,,Clear,0,2014-01-04 09:35:00
3:55 AM,32.7,32.2,98,30.15,7.0,Calm,Calm,-,N/A,,Clear,0,2014-01-04 09:55:00
4:15 AM,32.2,32.0,99,30.14,7.0,Calm,Calm,-,N/A,,Clear,0,2014-01-04 10:15:00
4:35 AM,32.0,31.6,99,30.14,10.0,Calm,Calm,-,N/A,,Clear,0,2014-01-04 10:35:00
4:55 AM,32.0,31.8,99,30.13,7.0,Calm,Calm,-,N/A,,Clear,0,2014-01-04 10:55:00
5:15 AM,32.0,32.0,100,30.13,7.0,Calm,Calm,-,N/A,,Clear,0,2014-01-04 11:15:00
5:35 AM,32.4,32.0,99,30.12,7.0,Calm,Calm,-,N/A,,Clear,0,2014-01-04 11:35:00
5:55 AM,32.7,32.0,97,30.12,7.0,Calm,Calm,-,N/A,,Clear,0,2014-01-04 11:55:00
6:15 AM,32.9,32.0,96,30.12,7.0,Calm,Calm,-,N/A,,Clear,0,2014-01-04 12:15:00
6:35 AM,32.2,31.8,99,30.12,7.0,Calm,Calm,-,N/A,,Clear,0,2014-01-04 12:35:00
6:55 AM,32.4,32.2,99,30.12,7.0,Calm,Calm,-,N/A,,Clear,0,2014-01-04 12:55:00
7:15 AM,32.9,32.9,100,30.12,5.0,Calm,Calm,-,N/A,,Mostly Cloudy,0,2014-01-04 13:15:00
7:35 AM,35.2,35.2,100,30.12,7.0,Calm,Calm,-,N/A,,Mostly Cloudy,0,2014-01-04 13:35:00
7:55 AM,37.9,37.8,99,30.12,5.0,Calm,Calm,-,N/A,,Scattered Clouds,0,2014-01-04 13:55:00
8:15 AM,41.4,40.5,97,30.12,5.0,SSE,3.5,-,N/A,,Scattered Clouds,150,2014-01-04 14:15:00
8:35 AM,45.7,42.8,90,30.12,7.0,SSE,3.5,-,N/A,,Overcast,150,2014-01-04 14:35:00
8:55 AM,47.5,43.9,87,30.11,5.0,SSE,4.6,-,N/A,,Overcast,150,2014-01-04 14:55:00
9:15 AM,48.9,45.0,86,30.12,7.0,SSE,3.5,-,N/A,,Overcast,160,2014-01-04 15:15:00
9:35 AM,51.3,46.4,83,30.12,7.0,SSE,3.5,-,N/A,,Overcast,150,2014-01-04 15:35:00
9:55 AM,54.5,48.2,79,30.11,5.0,SSE,6.9,-,N/A,,Haze,160,2014-01-04 15:55:00
10:15 AM,58.1,49.5,73,30.10,7.0,SSE,6.9,-,N/A,,Mostly Cloudy,160,2014-01-04 16:15:00
10:35 AM,60.6,50.7,70,30.09,7.0,South,12.7,18.4,N/A,,Mostly Cloudy,180,2014-01-04 16:35:00
10:55 AM,62.1,51.3,68,30.08,7.0,South,15.0,23.0,N/A,,Overcast,170,2014-01-04 16:55:00
11:15 AM,62.6,51.3,66,30.07,7.0,South,16.1,23.0,N/A,,Overcast,180,2014-01-04 17:15:00
11:35 AM,63.3,51.6,66,30.07,10.0,South,11.5,16.1,N/A,,Overcast,170,2014-01-04 17:35:00
11:55 AM,63.3,51.4,65,30.05,7.0,South,16.1,20.7,N/A,,Overcast,180,2014-01-04 17:55:00
12:15 PM,63.9,51.8,65,30.04,10.0,South,11.5,18.4,N/A,,Overcast,170,2014-01-04 18:15:00
12:35 PM,64.8,51.8,63,30.02,7.0,South,16.1,23.0,N/A,,Overcast,180,2014-01-04 18:35:00
12:55 PM,64.6,52.0,64,30.01,7.0,South,16.1,23.0,N/A,,Overcast,190,2014-01-04 18:55:00
1:15 PM,64.0,52.5,66,30.00,7.0,South,13.8,20.7,N/A,,Overcast,180,2014-01-04 19:15:00
1:35 PM,63.5,52.0,66,29.99,7.0,South,16.1,21.9,N/A,,Overcast,180,2014-01-04 19:35:00
1:55 PM,63.5,52.2,67,29.98,7.0,South,15.0,21.9,N/A,,Overcast,170,2014-01-04 19:55:00
2:15 PM,63.9,52.5,67,29.97,7.0,SSE,11.5,21.9,N/A,,Overcast,160,2014-01-04 20:15:00
2:35 PM,63.9,52.7,67,29.97,7.0,South,12.7,21.9,N/A,,Overcast,170,2014-01-04 20:35:00
2:55 PM,63.7,52.5,67,29.97,7.0,South,15.0,23.0,N/A,,Overcast,170,2014-01-04 20:55:00
3:15 PM,63.5,52.7,68,29.96,7.0,South,10.4,19.6,N/A,,Overcast,170,2014-01-04 21:15:00
3:35 PM,63.5,53.2,69,29.96,7.0,South,12.7,18.4,N/A,,Overcast,170,2014-01-04 21:35:00
3:55 PM,63.0,53.2,71,29.95,5.0,SSE,10.4,19.6,N/A,,Haze,160,2014-01-04 21:55:00
4:15 PM,63.0,53.6,71,29.94,7.0,SSE,8.1,18.4,N/A,,Overcast,160,2014-01-04 22:15:00
4:35 PM,62.6,53.4,72,29.93,7.0,South,11.5,21.9,N/A,,Overcast,170,2014-01-04 22:35:00
4:55 PM,61.9,53.2,73,29.92,7.0,South,9.2,21.9,N/A,,Overcast,170,2014-01-04 22:55:00
5:15 PM,61.3,53.2,75,29.92,7.0,SSE,9.2,20.7,N/A,,Overcast,160,2014-01-04 23:15:00
5:35 PM,61.0,53.2,76,29.92,7.0,South,8.1,-,N/A,,Overcast,170,2014-01-04 23:35:00
5:55 PM,60.8,53.2,76,29.92,7.0,South,11.5,-,N/A,,Overcast,170,2014-01-04 23:55:00
6:15 PM,61.0,53.4,76,29.92,10.0,South,11.5,19.6,N/A,,Overcast,170,2014-01-05 00:15:00
6:35 PM,60.8,53.6,77,29.93,10.0,South,10.4,17.3,N/A,,Overcast,170,2014-01-05 00:35:00
6:55 PM,60.6,53.8,78,29.93,7.0,South,10.4,-,N/A,,Overcast,170,2014-01-05 00:55:00
7:15 PM,60.4,54.0,79,29.93,7.0,South,11.5,-,N/A,,Overcast,170,2014-01-05 01:15:00
7:35 PM,60.4,54.5,81,29.93,10.0,South,9.2,-,N/A,,Overcast,170,2014-01-05 01:35:00
7:55 PM,60.6,54.5,80,29.93,5.0,South,11.5,17.3,N/A,,Haze,170,2014-01-05 01:55:00
8:15 PM,60.4,54.7,81,29.92,10.0,South,13.8,17.3,N/A,,Overcast,170,2014-01-05 02:15:00
8:35 PM,60.4,54.9,82,29.92,10.0,South,10.4,17.3,N/A,,Overcast,170,2014-01-05 02:35:00
8:55 PM,60.4,55.0,82,29.92,10.0,South,10.4,-,N/A,,Overcast,170,2014-01-05 02:55:00
9:15 PM,60.4,55.2,83,29.92,7.0,South,9.2,-,N/A,,Overcast,170,2014-01-05 03:15:00
9:35 PM,60.8,55.4,82,29.92,7.0,South,11.5,-,N/A,,Overcast,170,2014-01-05 03:35:00
9:55 PM,60.8,55.6,83,29.92,7.0,South,9.2,-,N/A,,Overcast,170,2014-01-05 03:55:00
10:15 PM,60.8,55.9,84,29.92,10.0,South,6.9,-,N/A,,Overcast,170,2014-01-05 04:15:00
10:35 PM,60.8,56.3,85,29.91,10.0,South,8.1,-,N/A,,Overcast,180,2014-01-05 04:35:00
10:55 PM,60.8,56.3,85,29.91,7.0,South,10.4,-,N/A,,Overcast,170,2014-01-05 04:55:00
11:15 PM,61.2,56.5,85,29.90,7.0,South,6.9,-,N/A,,Overcast,170,2014-01-05 05:15:00
11:35 PM,60.8,56.3,85,29.90,10.0,SSE,4.6,-,N/A,,Overcast,160,2014-01-05 05:35:00
11:55 PM,61.0,56.5,85,29.90,10.0,South,5.8,-,N/A,,Overcast,170,2014-01-05 05:55:00